[Iaude] MPEC M79: 2024 MR [a=2.17,e=0.48,i=10.5,H=20.9]

mpec at cfa.harvard.edu mpec at cfa.harvard.edu
Thu Jun 27 01:27:49 EDT 2024


M.P.E.C. 2024-M79                                 Issued 2024 June 27, 05:26 UT

     The Minor Planet Electronic Circulars contain information on unusual
         minor planets, routine data on comets and natural satellites,
         and occasional editorial announcements.  They are published
    on behalf of Division F of the International Astronomical Union by the
          Minor Planet Center, Smithsonian Astrophysical Observatory,
                          Cambridge, MA 02138, U.S.A.
			  
             Prepared using the Tamkin Foundation Computer Network

                              MPC at CFA.HARVARD.EDU
            URL https://www.minorplanetcenter.net/    ISSN 1523-6714

                                    2024 MR                                     


Observations:
     K24M00R* C2024 06 24.75171 18 24 44.27 +16 50 06.0          20.4 gVEM079O18
     K24M00R  C2024 06 24.75833 18 24 44.32 +16 50 13.4          20.5 gVEM079O18
     K24M00R  C2024 06 24.76494 18 24 44.39 +16 50 20.6          20.3 gVEM079O18
     K24M00R KC2024 06 26.62444 18 25 18.34 +17 24 25.0          19.6 GVEM079Q62
     K24M00R KC2024 06 26.63121 18 25 18.40 +17 24 31.5          19.3 GVEM079Q62
     K24M00R KC2024 06 26.63800 18 25 18.46 +17 24 38.5          19.9 GVEM079Q62
     K24M00R KC2024 06 26.96559918 25 25.390+17 29 50.17         20.4 GVEM079J95
     K24M00R KC2024 06 26.96827518 25 25.418+17 29 52.84         20.5 GVEM079J95
     K24M00R KC2024 06 26.97370618 25 25.476+17 29 58.52         19.8 GVEM079J95
     K24M00R KC2024 06 27.19724518 25 29.95 +17 33 57.4          20.6 GVEM079H21
     K24M00R KC2024 06 27.20004218 25 29.98 +17 34 00.3          20.9 GVEM079H21
     K24M00R KC2024 06 27.20283818 25 30.02 +17 34 03.4          21.1 GVEM079H21
     K24M00R KC2024 06 27.20563518 25 30.04 +17 34 06.3          20.8 GVEM079H21

Observer details:
H21 Astronomical Research Observatory, Westfield.  Observer R. Holmes.
    Measurers T. Linder, R. Holmes, L. Horn.  0.76-m f/3.0 astrograph + CCD.
J95 Great Shefford.  Observer P. Birtwhistle.  0.41-m f/6.3 Schmidt-Cassegrain
    + CCD.
O18 WFST, Lenghu.  Observers B. Li, H. B. Zhao, Z. Lou, Z. Q. Li, S. X. Li, Q.
    Y. Hai, K. Yan.  Measurers B. Li, H. B. Zhao, Z. J. Xu, G. T. Zhaori.
    2.5-m f/2.48 reflector + CCD.
Q62 iTelescope Observatory, Siding Spring.  Observer Z. Wang.  0.51-m f/6.8
    reflector + CCD.

Orbital elements:
2024 MR                                                  Earth MOID = 0.1249 AU
Epoch 2024 Mar. 31.0 TT = JDT 2460400.5                 MPC                     
M 315.76163              (2000.0)            P               Q                  
n   0.30726709     Peri.  163.75181     +0.83908623     +0.54144752             
a   2.1749971      Node   163.15029     -0.51713285     +0.82392930             
e   0.4813078      Incl.   10.45919     -0.16884288     +0.16725757             
P   3.21           H   20.98          G   0.15           U   8                  
Residuals in seconds of arc
240624 O18  0.1+  0.0     240626 Q62  0.0   0.3-    240627 H21  0.0   0.1-
240624 O18  0.1-  0.1+    240626 J95  0.2-  0.2+    240627 H21  0.2+  0.1+
240624 O18  0.0   0.0     240626 J95  0.2-  0.1+    240627 H21  0.1+  0.0
240626 Q62  0.0   0.4+    240626 J95  0.3-  0.0
240626 Q62  0.0   0.2-    240627 H21  0.0   0.0

Ephemeris:
2024 MR                  a,e,i = 2.17, 0.48, 10                  q = 1.1282
Date    TT    R. A. (2000) Decl.     Delta      r    Elong.  Phase     V
2024 05 28    18 14 09.0 +06 56 38   0.5218  1.4528   140.1    26.6    21.6
...
2024 06 12    18 20 52.8 +12 30 18   0.4144  1.3645   141.5    27.6    21.0
...
2024 06 20    18 23 20.8 +15 18 35   0.3668  1.3204   140.6    29.2    20.7
...
2024 06 26    18 25 07.0 +17 12 57   0.3347  1.2892   139.4    30.9    20.5
2024 06 27    18 25 25.7 +17 30 40   0.3297  1.2842   139.2    31.2    20.4
2024 06 28    18 25 45.0 +17 47 57   0.3247  1.2792   138.9    31.5    20.4
...
2024 07 04    18 27 58.4 +19 20 48   0.2961  1.2506   137.3    33.4    20.2
...
2024 07 12    18 32 28.0 +20 48 57   0.2612  1.2161   135.3    36.0    20.0
...
2024 07 27    18 50 52.9 +21 02 51   0.2033  1.1649   133.5    39.2    19.4

A. U. Tomatic                (C) Copyright 2024 MPC           M.P.E.C. 2024-M79





More information about the Iaude mailing list